Arctic - Eastern Arctic: Past 24 Hour Conditions

 

Pond Inlet Airport

04:00 AM EDT 26 October 2014
This table is a summary of hourly weather conditions for the past 24 hours.
Date / Time
(EDT)
Wind(knots) Conditions Visibility(km) Pressure(kPa) Air tempC) Relative humidity(%) Dew pointC) Wind Chill
26 October 2014
4:00 SSE 8 Cloudy 16 102.1 -14 85 -16 -21
3:00 SSE 7 Light Snow 16 102.2 -13 85 -15 -20
2:00 SE 6 Cloudy 16 102.2 -13 83 -16 -20
1:00 SSE 11 Cloudy 16 102.2 -14 83 -16 -23
0:00 SSE 9 Cloudy 16 102.2 -14 82 -16 -22
25 October 2014
23:00 SE 10 Cloudy 16 102.2 -14 81 -17 -22
22:00 SSE 11 Cloudy 16 102.2 -14 81 -17 -24
21:00 SSE 11 Cloudy 16 102.2 -14 81 -17 -23
20:00 SSE 12 Cloudy 16 102.3 -14 79 -17 -24
19:00 SSE 12 Cloudy 16 102.3 -14 77 -17 -23
18:00 SSE 10 Cloudy 16 102.3 -14 79 -17 -22
17:00 SSE 12 Cloudy 16 102.3 -14 78 -17 -23
16:00 SSE 11 Light Snow 16 102.2 -14 78 -17 -23
15:00 S 11 Cloudy 16 102.2 -14 78 -17 -23
14:00 S 10 Light Snow 16 102.2 -13 78 -16 -22
13:00 S 9 Light Snow 16 102.2 -13 77 -17 -21
12:00 S 9 Light Snow 16 102.2 -13 78 -16 -21
11:00 S 7 Light Snow 13 102.2 -13 78 -16 -20
10:00 SSE 7 Light Snow 16 102.2 -13 80 -16 -20
9:00 WSW 7 Light Snow 15 102.2 -13 75 -16 -19
8:00 W 10 Light Snow 16 102.1 -13 73 -17 -21
7:00 W 12 Cloudy 16 102.1 -13 71 -17 -22
6:00 W 13 Cloudy 16 102.1 -13 72 -17 -22
5:00 WNW 12 gust 19 Cloudy 16 102.1 -13 72 -17 -22
4:00 W 16 gust 22 Cloudy 16 102.1 -13 70 -17 -23
 
Map of Arctic - Eastern Arctic marine weather areas Baker Lake Airport Chesterfield Inlet Airport Coral Harbour Airport Gjoa Haven Airport Kugaaruk Airport Rankin Inlet Airport Shepherd Bay Airport Whale Cove Airport Arctic Bay Brevoort Island Qikiqtarjuaq Airport Cape Dorset Airport Cape Dyer Cape Hooper Clyde Airport Grise Fiord Airport Hall Beach Airport Igloolik Airport Iqaluit Airport Longstaff Bluff Pangnirtung Airport Pond Inlet Airport Repulse Bay Airport Resolute Airport Resolution Island Rowley Island Airport Taloyoak Airport Wager Bay Akulivik Airport Ivujivik Airport Puvirnituq Airport Kangiqsujuaq Airport Kangirsuk Airport Quaqtaq Airport Tasiujaq Airport Cape Kakkiviak Cape Kiglapait Nain Airport Saglek Cape Mercy Kimmirut Airport Aupaluk Airport Salluit Airport Kangiqsualujjuaq Airport Fort Ross
Legend: buoyBuoy land stationLand Station